Retour au catalogue

STARLINK-1577

ActifCommunicationsVLEO
NORAD 46063·PAYLOAD·🇺🇸 United States

Lancé Aug 7, 2020 depuis Cape Canaveral Space Force Station

Loading…

Prochains Passages (prochaines 24 heures)

TLE

FraisSource: CelesTrak SupGP

Époque: Sep 15, 2026, 02:40 UTC

1 46063C 20055AN  26258.11159722  .00041231  00000+0  13253-2 0  2586
2 46063  53.1571 312.3498 0001253  98.8132 238.9007 15.31696916    12

Suivez STARLINK-1577 en temps réel avec AllMySat

Download on the App Store